Weather History for KWAL - March, 2013

Change the Weather History Date:

Wednesday, March 27, 2013

  Actual Average Record
Temperature  
Mean Temperature 46 °F 48 °F  
Max Temperature 54 °F 57 °F 82 °F (2007)
Min Temperature 38 °F 39 °F 23 °F (2014)
Degree Days  
Heating Degree Days 19    
Month to date heating degree days 611  
Since 1 July heating degree days 3308  
Cooling Degree Days 0    
Month to date cooling degree days 0  
Year to date cooling degree days 0  
Moisture  
Dew Point 27 °F    
Average Humidity 50    
Maximum Humidity 64    
Minimum Humidity 35    
Precipitation  
Precipitation T in 0.14 in 1.52 in (1999)
Month to date precipitation 4.26 3.48  
Year to date precipitation 12.50 9.28  
Sea Level Pressure  
Sea Level Pressure 30.02 in    
Wind  
Wind Speed 11 mph (NW)    
Max Wind Speed 24 mph    
Max Gust Speed 32 mph    
Visibility 10 miles    
Events      
T = Trace of Precipitation, MM = Missing Value Source: NWS Daily Summary

Daily Weather History Graph

Daily Weather History Graph

Search for Another Location

Airport or City:

Trip Planner

Search our weather history database for the weather conditions in past years. The results will help you decide how hot, cold, wet, or windy it might be!

Date:

Astronomy

Mar. 27, 2013 Rise Set
Actual Time 6:54 AM EDT 7:20 PM EDT
Civil Twilight 6:27 AM EDT 7:46 PM EDT
Nautical Twilight 5:57 AM EDT 8:17 PM EDT
Astronomical Twilight 5:25 AM EDT 8:49 PM EDT
Moon 8:00 PM EDT (3/27) 6:44 AM EDT (3/27)
Length of Visible Light 13h 18m
Length of Day
12h 26m
Full, 100% of the Moon is Illuminated
Mar 27
Full
Apr 3
Last Quarter
Apr 10
New
Apr 18
First Quarter
Apr 25
Full

Hourly Weather History & Observations

Time (EDT) Temp. Windchill Dew Point Humidity Pressure Visibility Wind Dir Wind Speed Gust Speed Precip Events Conditions
12:54 AM 41.0 °F 37.1 °F 28.9 °F 62% 29.96 in 10.0 mi WNW 5.8 mph - N/A   Mostly Cloudy
1:54 AM 39.9 °F 35.1 °F 28.9 °F 65% 29.96 in 10.0 mi NW 6.9 mph - N/A   Clear
2:54 AM 41.0 °F 35.8 °F 28.0 °F 60% 29.96 in 10.0 mi NW 8.1 mph - N/A   Clear
3:54 AM 39.9 °F 34.5 °F 28.0 °F 63% 29.96 in 10.0 mi NW 8.1 mph - N/A   Mostly Cloudy
4:54 AM 39.0 °F 33.4 °F 28.0 °F 65% 29.96 in 10.0 mi NW 8.1 mph - N/A   Clear
5:54 AM 39.9 °F 35.1 °F 28.9 °F 65% 29.98 in 10.0 mi NW 6.9 mph - N/A   Overcast
6:54 AM 41.0 °F 35.2 °F 28.0 °F 60% 30.00 in 10.0 mi NW 9.2 mph - N/A   Overcast
7:54 AM 41.0 °F 34.7 °F 28.0 °F 60% 30.02 in 10.0 mi NW 10.4 mph - N/A   Mostly Cloudy
8:54 AM 44.1 °F 37.4 °F 28.9 °F 55% 30.04 in 10.0 mi NW 13.8 mph 19.6 mph N/A   Scattered Clouds
9:54 AM 46.9 °F - 28.0 °F 48% 30.04 in 10.0 mi NW 13.8 mph - N/A   Scattered Clouds
10:54 AM 48.9 °F - 28.0 °F 44% 30.04 in 10.0 mi NNW 12.7 mph - N/A   Scattered Clouds
11:54 AM 51.1 °F - 28.0 °F 41% 30.03 in 10.0 mi WNW 12.7 mph - N/A   Scattered Clouds
12:54 PM 52.0 °F - 27.0 °F 38% 30.02 in 10.0 mi NNW 13.8 mph 24.2 mph N/A   Mostly Cloudy
1:54 PM 53.1 °F - 26.1 °F 35% 30.02 in 10.0 mi WNW 15.0 mph 26.5 mph N/A   Mostly Cloudy
2:54 PM 52.0 °F - 25.0 °F 35% 30.01 in 10.0 mi NNW 18.4 mph 26.5 mph N/A   Mostly Cloudy
3:54 PM 50.0 °F - 24.1 °F 36% 30.00 in 10.0 mi NNW 13.8 mph 24.2 mph 0.00 in   Mostly Cloudy
4:54 PM 48.9 °F - 26.1 °F 41% 30.01 in 10.0 mi NNW 10.4 mph 23.0 mph 0.00 in   Mostly Cloudy
5:54 PM 51.1 °F - 25.0 °F 36% 30.02 in 10.0 mi NW 19.6 mph 27.6 mph N/A   Mostly Cloudy
6:54 PM 48.0 °F - 26.1 °F 42% 30.04 in 10.0 mi NW 11.5 mph 19.6 mph N/A   Clear
7:54 PM 45.0 °F 41.2 °F 26.1 °F 48% 30.06 in 10.0 mi WNW 6.9 mph - N/A   Clear
8:54 PM 43.0 °F 38.2 °F 27.0 °F 53% 30.07 in 10.0 mi NW 8.1 mph - N/A   Partly Cloudy
9:54 PM 42.1 °F 37.7 °F 27.0 °F 55% 30.09 in 10.0 mi WNW 6.9 mph - N/A   Clear
10:54 PM 42.1 °F 37.1 °F 27.0 °F 55% 30.09 in 10.0 mi WNW 8.1 mph - N/A   Clear
11:54 PM 42.1 °F 37.1 °F 26.1 °F 53% 30.09 in 10.0 mi NW 8.1 mph - N/A   Clear